Weather History for Jefferson, GA

Change the Weather History Date:

Friday, October 25, 2013

  Actual Average (KGVL) Record (KGVL)
Temperature  
Mean Temperature 48 °F 59 °F  
Max Temperature 59 °F 69 °F 87 °F (1931)
Min Temperature 37 °F 49 °F 28 °F (1937)
Degree Days  
Heating Degree Days 17 7  
Month to date heating degree days 100  
Since 1 July heating degree days 113  
Cooling Degree Days 0 1  
Month to date cooling degree days 38  
Year to date cooling degree days 1579  
Growing Degree Days 0 (Base 50)    
Moisture  
Dew Point 22 °F    
Average Humidity 45    
Maximum Humidity 66    
Minimum Humidity 7    
Precipitation  
Precipitation 0.00 in 0.11 in 3.22 in (1986)
Month to date precipitation 3.43  
Snow  
Snow 0.00 in - - ()
Month to date snowfall  
Since 1 July snowfall  
Since 1 September snowfall  
Snow Depth -    
Sea Level Pressure  
Sea Level Pressure 30.29 in    
Wind  
Wind Speed 2 mph (NNW)    
Max Wind Speed 9 mph    
Max Gust Speed -    
Visibility 10 miles    
Events      
T = Trace of Precipitation, MM = Missing Value Source: NWS Daily Summary

Daily Weather History Graph

Daily Weather History Graph

Search for Another Location

Airport:

Trip Planner

Search our weather history database for the weather conditions in past years. The results will help you decide how hot, cold, wet, or windy it might be!

Date:

Astronomy

Oct. 25, 2013 Rise Set
Actual Time 7:48 AM EDT 6:48 PM EDT
Civil Twilight 7:22 AM EDT 7:13 PM EDT
Nautical Twilight 6:53 AM EDT 7:42 PM EDT
Astronomical Twilight 6:23 AM EDT 8:12 PM EDT
Moon No Moon Rise 1:23 PM EDT (10/25)
Length of Visible Light 11h 51m
Length of Day
11h 00m
Waning Gibbous, 62% of the Moon is Illuminated
Oct 25
Waning Gibbous
Oct 26
Last Quarter
Nov 3
New
Nov 10
First Quarter
Nov 17
Full

Hourly Weather History & Observations

Time (EDT) Temp. Windchill Dew Point Humidity Pressure Visibility Wind Dir Wind Speed Gust Speed Precip Events Conditions
12:15 AM 46.4 °F - 35.6 °F 66% 30.20 in 10.0 mi Calm Calm - N/A   Scattered Clouds
12:35 AM 46.4 °F - 35.6 °F 66% 30.20 in 10.0 mi Calm Calm - N/A   Scattered Clouds
12:55 AM 46.4 °F - 35.6 °F 66% 30.20 in 10.0 mi Calm Calm - N/A   Clear
1:15 AM 46.4 °F - 35.6 °F 66% 30.20 in 10.0 mi Calm Calm - N/A   Scattered Clouds
1:35 AM 46.4 °F - 35.6 °F 66% 30.20 in 10.0 mi Calm Calm - N/A   Scattered Clouds
1:55 AM 46.4 °F - 35.6 °F 66% 30.21 in 10.0 mi Calm Calm - N/A   Scattered Clouds
2:15 AM 46.4 °F - 35.6 °F 66% 30.21 in 10.0 mi Calm Calm - N/A   Mostly Cloudy
2:35 AM 44.6 °F - 33.8 °F 66% 30.22 in 10.0 mi Calm Calm - N/A   Scattered Clouds
2:55 AM 44.6 °F 43.1 °F 33.8 °F 66% 30.22 in 10.0 mi NNW 3.5 mph - N/A   Clear
3:15 AM 44.6 °F - 33.8 °F 66% 30.23 in 10.0 mi Calm Calm - N/A   Clear
3:35 AM 44.6 °F 43.1 °F 32.0 °F 61% 30.23 in 10.0 mi NNW 3.5 mph - N/A   Clear
3:55 AM 44.6 °F 42.2 °F 32.0 °F 61% 30.24 in 10.0 mi NW 4.6 mph - N/A   Clear
4:15 AM 42.8 °F - 32.0 °F 66% 30.24 in 10.0 mi Calm Calm - N/A   Clear
4:35 AM 42.8 °F 38.6 °F 32.0 °F 66% 30.24 in 10.0 mi NW 6.9 mph - N/A   Clear
4:55 AM 42.8 °F 40.1 °F 32.0 °F 66% 30.24 in 10.0 mi NW 4.6 mph - N/A   Clear
5:15 AM 41.0 °F 36.4 °F 30.2 °F 65% 30.25 in 10.0 mi NW 6.9 mph - N/A   Clear
5:35 AM 41.0 °F 36.4 °F 28.4 °F 61% 30.26 in 10.0 mi NW 6.9 mph - N/A   Clear
5:55 AM 41.0 °F 35.2 °F 28.4 °F 61% 30.26 in 10.0 mi NW 9.2 mph - N/A   Clear
6:15 AM 41.0 °F 38.0 °F 26.6 °F 57% 30.27 in 10.0 mi NNW 4.6 mph - N/A   Clear
6:35 AM 41.0 °F 36.4 °F 26.6 °F 57% 30.27 in 10.0 mi NW 6.9 mph - N/A   Clear
6:55 AM 39.2 °F 35.9 °F 26.6 °F 61% 30.28 in 10.0 mi NNW 4.6 mph - N/A   Clear
7:15 AM 37.4 °F 32.8 °F 26.6 °F 65% 30.29 in 10.0 mi NW 5.8 mph - N/A   Clear
7:35 AM 37.4 °F 33.8 °F 26.6 °F 65% 30.30 in 10.0 mi NW 4.6 mph - N/A   Clear
7:55 AM 37.4 °F 32.8 °F 26.6 °F 65% 30.31 in 10.0 mi NW 5.8 mph - N/A   Clear
8:15 AM 37.4 °F 33.8 °F 26.6 °F 65% 30.31 in 10.0 mi NW 4.6 mph - N/A   Clear
8:35 AM 37.4 °F - 24.8 °F 60% 30.33 in 10.0 mi Calm Calm - N/A   Clear
8:55 AM 37.4 °F 34.9 °F 24.8 °F 60% 30.33 in 10.0 mi NW 3.5 mph - N/A   Clear
9:15 AM 41.0 °F 38.0 °F 24.8 °F 53% 30.34 in 10.0 mi NNW 4.6 mph - N/A   Clear
9:35 AM 41.0 °F 37.1 °F 26.6 °F 57% 30.35 in 10.0 mi NW 5.8 mph - N/A   Clear
9:55 AM 42.8 °F 41.1 °F 26.6 °F 53% 30.35 in 10.0 mi NNW 3.5 mph - N/A   Clear
10:15 AM 44.6 °F 40.7 °F 23.0 °F 43% 30.36 in 10.0 mi NNW 6.9 mph - N/A   Clear
10:35 AM 44.6 °F 41.4 °F 21.2 °F 39% 30.36 in 10.0 mi NW 5.8 mph - N/A   Clear
10:55 AM 46.4 °F 43.5 °F 19.4 °F 34% 30.36 in 10.0 mi NNW 5.8 mph - N/A   Clear
11:15 AM 48.2 °F - 21.2 °F 34% 30.36 in 10.0 mi North 3.5 mph - N/A   Clear
11:35 AM 50.0 °F - 19.4 °F 30% 30.36 in 10.0 mi NNW 5.8 mph - N/A   Clear
11:55 AM 50.0 °F - 17.6 °F 28% 30.36 in 10.0 mi Calm Calm - N/A   Clear
12:15 PM 51.8 °F - 14.0 °F 22% 30.35 in 10.0 mi NNW 4.6 mph - N/A   Clear
12:35 PM 51.8 °F - 10.4 °F 19% 30.35 in 10.0 mi Calm Calm - N/A   Clear
12:55 PM 53.6 °F - 8.6 °F 16% 30.34 in 10.0 mi NNW 6.9 mph - N/A   Clear
1:15 PM 55.4 °F - 8.6 °F 15% 30.33 in 10.0 mi North 4.6 mph - N/A   Clear
1:35 PM 55.4 °F - 3.2 °F 12% 30.32 in 10.0 mi North 5.8 mph - N/A   Clear
1:55 PM 55.4 °F - -4.0 °F 9% 30.31 in 10.0 mi NNW 3.5 mph - N/A   Clear
2:15 PM 55.4 °F - -0.4 °F 10% 30.31 in 10.0 mi WNW 4.6 mph - N/A   Clear
2:35 PM 55.4 °F - -0.4 °F 10% 30.30 in 10.0 mi Calm Calm - N/A   Clear
2:55 PM 57.2 °F - -4.0 °F 8% 30.30 in 10.0 mi Calm Calm - N/A   Clear
3:15 PM 57.2 °F - -4.0 °F 8% 30.29 in 10.0 mi WNW 4.6 mph - N/A   Clear
3:35 PM 59.0 °F - -4.0 °F 8% 30.29 in 10.0 mi Calm Calm - N/A   Clear
3:55 PM 59.0 °F - -2.2 °F 8% 30.29 in 7.0 mi Calm Calm - N/A   Clear
4:15 PM 59.0 °F - -4.0 °F 8% 30.29 in 10.0 mi ENE 3.5 mph - N/A   Clear
4:35 PM 59.0 °F - -0.4 °F 9% 30.29 in 5.0 mi Calm Calm - N/A   Haze
4:55 PM 59.0 °F - -5.8 °F 7% 30.29 in 7.0 mi ESE 4.6 mph - N/A   Clear
5:15 PM 59.0 °F - 1.4 °F 10% 30.28 in 4.0 mi Calm Calm - N/A   Haze
5:35 PM 57.2 °F - -0.4 °F 10% 30.28 in 1.0 mi Calm Calm - N/A   Haze
5:55 PM 57.2 °F - 3.2 °F 11% 30.28 in 7.0 mi SE 4.6 mph - N/A   Clear
6:15 PM 55.4 °F - 17.6 °F 23% 30.28 in 10.0 mi Calm Calm - N/A   Clear
6:35 PM 53.6 °F - 23.0 °F 30% 30.28 in 10.0 mi Calm Calm - N/A   Clear
6:55 PM 50.0 °F - 26.6 °F 40% 30.29 in 10.0 mi Calm Calm - N/A   Clear
7:15 PM 48.2 °F - 26.6 °F 43% 30.29 in 10.0 mi Calm Calm - N/A   Clear
7:35 PM 46.4 °F - 26.6 °F 46% 30.29 in 10.0 mi Calm Calm - N/A   Clear
7:55 PM 46.4 °F - 26.6 °F 46% 30.30 in 10.0 mi Calm Calm - N/A   Clear
8:15 PM 46.4 °F - 28.4 °F 50% 30.30 in 10.0 mi Calm Calm - N/A   Clear
8:35 PM 44.6 °F - 28.4 °F 53% 30.30 in 10.0 mi Calm Calm - N/A   Clear
8:55 PM 42.8 °F 41.1 °F 30.2 °F 61% 30.31 in 10.0 mi NW 3.5 mph - N/A   Clear
9:15 PM 42.8 °F - 28.4 °F 57% 30.32 in 10.0 mi Calm Calm - N/A   Clear
9:35 PM 42.8 °F - 28.4 °F 57% 30.32 in 10.0 mi Calm Calm - N/A   Clear
9:55 PM 42.8 °F - 30.2 °F 61% 30.33 in 10.0 mi Calm Calm - N/A   Clear
10:15 PM 41.0 °F - 28.4 °F 61% 30.33 in 10.0 mi Calm Calm - N/A   Clear
10:35 PM 41.0 °F - 30.2 °F 65% 30.34 in 10.0 mi Calm Calm - N/A   Clear
10:55 PM 41.0 °F - 28.4 °F 61% 30.35 in 10.0 mi Calm Calm - N/A   Clear
11:15 PM 41.0 °F - 30.2 °F 65% 30.35 in 10.0 mi Calm Calm - N/A   Clear
11:35 PM 41.0 °F - 30.2 °F 65% 30.35 in 10.0 mi Calm Calm - N/A   Clear
11:55 PM 41.0 °F - 30.2 °F 65% 30.35 in 10.0 mi Calm Calm - N/A   Clear